Home > Weather > Dubbo > Past weeks

Flag for Australia Past Weather in Dubbo, New South Wales, Australia — Yesterday and Last 2 Weeks

Now
46 °F

Clear.


Feels Like: 41 °F
Forecast: 34 / 58 °F
Wind: 10 mph from South

Location: Dubbo Airport

Current Time: Aug 26, 2016 at 8:24:53 PM

Latest Report: Aug 26, 2016 at 8:00 PM


Visibility: N/A

Pressure: 30.15 "Hg

Humidity: 66%

Dew Point: 36 °F

Location of DubboLocation

Past Weather in Dubbo — Graph

°F

Dubbo Temperature Yesterday

Maximum temperature yesterday: 55 °F (at 12:30 PM)
Minimum temperature yesterday: 37 °F (at 9:30 PM)
Average temperature yesterday: 48 °F

High & Low Weather Summary for the Past Weeks

 TemperatureHumidityPressure
High70 °F (Aug 18, 2:30 PM)100% (Aug 12, 1:30 AM)30.48 "Hg (Aug 12, 1:30 AM)
Low30 °F (Aug 21, 5:00 AM)38% (Aug 18, 3:00 PM)29.74 "Hg (Aug 24, 2:00 PM)
Average49 °F78%30.14 "Hg
* Reported Aug 11 7:00 PM — Aug 26 7:00 PM, Dubbo, Weather by CustomWeather, © 2016

Note: Actual official high and low records may vary slightly from our data, if they occured in-between our weather recording intervals... More about our weather records

Advertising

Dubbo Weather History for the Previous 24 Hours

Scroll right to see more
 ConditionsComfort  
Time TempWeatherWind HumidityBarometerVisibility
7:00 PM
Fri, Aug 26
46 °FClear.10 mph71%30.15 "HgN/A
6:00 PM48 °FClear.10 mph66%30.12 "HgN/A
5:00 PM55 °FPassing clouds.10 mph47%30.09 "HgN/A
4:00 PM57 °FScattered clouds.8 mph44%30.09 "HgN/A
3:30 PM57 °FScattered clouds.10 mph44%30.09 "HgN/A
3:00 PM57 °FScattered clouds.9 mph41%30.07 "HgN/A
2:30 PM57 °FPartly sunny.10 mph41%30.07 "HgN/A
2:00 PM57 °FPartly sunny.8 mph44%30.09 "HgN/A
1:00 PM57 °FScattered clouds.10 mph51%30.09 "HgN/A
12:00 PM54 °FSunny.13 mph51%30.12 "HgN/A
11:00 AM52 °FSunny.8 mph54%30.15 "HgN/A
10:30 AM52 °FSunny.7 mph54%30.15 "HgN/A
10:00 AM48 °FSunny.6 mph71%30.15 "HgN/A
9:30 AM48 °FScattered clouds.7 mph71%30.15 "HgN/A
9:00 AM45 °FSunny.5 mph87%30.15 "HgN/A
8:30 AM43 °FSunny.5 mph87%30.12 "HgN/A
8:00 AM39 °FSunny.3 mph100%30.12 "HgN/A
7:00 AM34 °FChilly.No wind93%30.12 "Hg0 mi
6:00 AM32 °FChilly.5 mph100%30.09 "Hg1 mi
5:00 AM32 °FClear.No wind93%30.07 "HgN/A
4:30 AM34 °FClear.No wind100%30.07 "Hg1 mi
4:00 AM34 °FClear.No wind93%30.07 "HgN/A
3:30 AM36 °FClear.5 mph100%30.07 "HgN/A
3:00 AM34 °FClear.No wind93%30.07 "HgN/A
2:00 AM36 °FClear.No wind93%30.07 "HgN/A
1:00 AM37 °FClear.6 mph93%30.07 "HgN/A
12:30 AM37 °FClear.8 mph87%30.07 "HgN/A
12:00 AM37 °FClear.8 mph93%30.07 "HgN/A
11:00 PM
Thu, Aug 25
39 °FClear.5 mph87%30.07 "HgN/A
10:00 PM43 °FPartly cloudy.8 mph81%30.04 "HgN/A
9:30 PM37 °FClear.8 mph87%30.04 "HgN/A
9:00 PM39 °FClear.8 mph87%30.04 "HgN/A
8:00 PM43 °FClear.6 mph76%30.04 "HgN/A
Weather by CustomWeather, © 2016

See weather overviewHow to use our weather pages